Location: Althorst
(53.6379°N, 10.7715°E)
Time: 03:00:34
(UTC+00:00)

CZ-4 R/B - Pass Details

Date: 10 December 2019
Orbit: 533 x 598 km, 97.7° (Epoch: 26 January)

Event Time Altitude Azimuth Distance (km) Brightness Sun altitude
Rises 17:07:04 0° 156° (SSE) 2,705 4.8 -17.9°
Reaches altitude 10° 17:09:12 10° 154° (SSE) 1,809 3.8 -18.2°
Maximum altitude 17:13:04 66° 72° (ENE) 593 1.1 -18.8°
Drops below altitude 10° 17:16:55 10° 350° (N) 1,804 3.9 -19.3°
Sets 17:19:03 0° 348° (NNW) 2,697 4.9 -19.6°
